SAR-LUPE 2 1 31797U 07030A 26106.75056586 .00011943 00000+0 26637-3 0 9998 2 31797 98.0996 203.9598 0009769 341.5737 18.5153 15.43707214 47443 SAPPHIRE 1 39088U 13009C 26106.74270450 .00000062 00000+0 36511-4 0 9992 2 39088 98.4247 287.6607 0012349 74.1085 286.1461 14.35223791687763 PRAETORIAN SDA_602 1 65565U 25203A 26106.58940700 .00000224 00000+0 19027-3 0 9996 2 65565 81.3021 67.8220 0006330 11.6613 348.4689 13.84335473 30173 PRAETORIAN SDA_603 1 65566U 25203B 26106.59666205 .00000142 00000+0 11714-3 0 9997 2 65566 81.3025 67.6874 0009887 7.2155 352.9141 13.83897757 30184 PRAETORIAN SDA_604 1 65567U 25203C 26106.57812758 .00000017 00000+0 49925-5 0 9990 2 65567 81.3043 68.0226 0006093 19.2112 340.9273 13.83038705 30164 PRAETORIAN SDA_605 1 65568U 25203D 26106.63304019 .00000032 00000+0 18513-4 0 9999 2 65568 81.3006 67.6951 0008486 4.9105 355.2133 13.83425872 30186 PRAETORIAN SDA_606 1 65569U 25203E 26106.61755828 .00000042 00000+0 27040-4 0 9992 2 65569 81.3043 67.9114 0006230 9.6488 350.4787 13.83532970 30172 PRAETORIAN SDA_607 1 65570U 25203F 26106.58961778 .00000223 00000+0 18876-3 0 9990 2 65570 81.3029 67.6898 0009181 8.7458 351.3857 13.84318065 30186 PRAETORIAN SDA_608 1 65571U 25203G 26106.61819448 .00000025 00000+0 11963-4 0 9992 2 65571 81.2996 67.7997 0006506 17.3872 342.7506 13.83891477 30170 PRAETORIAN SDA_609 1 65572U 25203H 26106.64413520 .00000137 00000+0 11213-3 0 9998 2 65572 81.3043 67.7753 0007117 9.0308 351.0975 13.84302310 30184 PRAETORIAN SDA_610 1 65573U 25203J 26106.38427169 .00000039 00000+0 24715-4 0 9997 2 65573 81.2997 67.9806 0006959 13.6479 346.4864 13.83914492 30146 PRAETORIAN SDA_611 1 65574U 25203K 26106.64832230 -.00000042 00000+0 -49282-4 0 9998 2 65574 81.2995 67.8464 0006254 21.5785 338.5634 13.83300058 30177 PRAETORIAN SDA_612 1 65575U 25203L 26106.35349350 .00000120 00000+0 95664-4 0 9993 2 65575 81.3018 67.8579 0009622 8.1533 351.9778 13.85030477 30159 PRAETORIAN SDA_613 1 65576U 25203M 26106.63544403 .00000016 00000+0 33720-5 0 9991 2 65576 81.2988 67.8177 0006177 14.7956 345.3379 13.82946057 30176 PRAETORIAN SDA_614 1 65577U 25203N 26106.62009046 .00000008 00000+0 -38812-5 0 9999 2 65577 81.3004 67.6730 0007486 8.0296 352.0980 13.84770076 30190 PRAETORIAN SDA_615 1 65578U 25203P 26106.58175602 .00000203 00000+0 17115-3 0 9994 2 65578 81.3013 67.6336 0009367 6.2638 353.8634 13.84427362 30184 PRAETORIAN SDA_616 1 65579U 25203Q 26106.43017178 .00000204 00000+0 17541-3 0 9996 2 65579 81.3066 68.1537 0006184 22.2128 337.9294 13.83313830 30142 PRAETORIAN SDA_617 1 65580U 25203R 26106.59093733 .00000039 00000+0 24829-4 0 9990 2 65580 81.3026 67.8437 0007842 8.1506 351.9776 13.83196288 30170 PRAETORIAN SDA_618 1 65581U 25203S 26106.63380411 .00000185 00000+0 15341-3 0 9998 2 65581 81.3011 67.5462 0010146 7.2999 352.8304 13.84765149 30195 PRAETORIAN SDA_619 1 65582U 25203T 26106.63243639 .00000084 00000+0 64871-4 0 9990 2 65582 81.3033 67.7488 0008355 6.4909 353.6354 13.83936236 30810 PRAETORIAN SDA_620 1 65583U 25203U 26106.64778878 -.00004080 00000+0 -37054-2 0 9993 2 65583 81.3014 67.7378 0007801 4.9283 355.1949 13.83691904 30188 PRAETORIAN SDA_621 1 65584U 25203V 26106.62954588 .00000023 00000+0 97467-5 0 9994 2 65584 81.3009 67.6953 0007623 2.6631 357.4565 13.83792033 30189 PRAETORIAN SDA_601 1 65585U 25203W 26106.72251178 .00000285 00000+0 24797-3 0 9995 2 65585 81.3026 67.8478 0006145 20.8333 339.3073 13.83422299 30189